Location: Helsinki
(60.1699°N, 24.9384°E)
Time: 20:20:15
(UTC+02:00)

Transit 2A Rocket - Pass Details

Date: 21 September 2023
Orbit: 593 x 903 km, 66.7° (Epoch: 28 November)

Event Time Altitude Azimuth Distance (km) Brightness Sun altitude
Rises 18:22:00 0° 231° (SW) 3,296 9.5 6.9°
Reaches altitude 10° 18:24:30 10° 231° (SW) 2,320 8.8 6.6°
Maximum altitude 18:29:49 88° 322° (NW) 731 5.1 5.9°
Drops below altitude 10° 18:34:39 10° 52° (NE) 2,124 6.8 5.3°
Sets 18:36:53 0° 53° (NE) 2,998 7.5 5.1°
